This demonstration page uses our WeatherBlox Daily Observations layout. Learn more.

Left ArrowRight Arrow

Hourly Observations for October 18, 2020

Temp ( °F °C ) Dew Point ( °F °C ) Humidity (%) Winds ( mph kmh ) Pressure ( in mb ) Visibility ( mi km ) Precip ( " mm )
12:53 am 00:53 Mostly Cloudy 40 4.4 32 0 73 73 N 20 31 30.15 1021 10 16 0.00 0.00
1:15 am 01:15 Cloudy with Light Rain 38 3.3 33 0.6 83 83 NNE 20 31 30.18 1022 10 16 0.00 0.00
1:53 am 01:53 Cloudy 38 3.3 33 0.6 83 83 N 20 31 30.15 1021 10 16 0.00 0.00
2:13 am 02:13 Cloudy 37 2.8 33 0.6 86 86 NNE 21 33 30.19 1022 10 16 0.00 0.00
2:37 am 02:37 Cloudy 36 2.2 31 -0.6 82 82 NNE 23 37 30.23 1024 10 16 0.00 0.00
2:53 am 02:53 Cloudy 36 2.2 31 -0.6 82 82 NNE 18 30 30.16 1021 10 16 0.00 0.00
3:08 am 03:08 Cloudy 35 1.7 31 -0.6 85 85 NNE 21 33 30.23 1024 10 16 0.00 0.00
3:32 am 03:32 Cloudy 35 1.7 30 -1.1 82 82 NNE 20 31 30.23 1024 10 16 0.00 0.00
3:53 am 03:53 Cloudy 35 1.7 30 -1.1 82 82 NNE 18 30 30.19 1022 10 16 0.00 0.00
4:05 am 04:05 Cloudy 35 1.7 30 -1.1 82 82 NNE 17 28 30.26 1025 10 16 0.00 0.00
4:48 am 04:48 Cloudy 36 2 30 -1 81 81 NNE 14 22 30.25 1024 10 16 0.00 0.00
4:53 am 04:53 Cloudy 35 1.7 30 -1.1 82 82 NNE 17 28 30.19 1022 10 16 0.00 0.00
5:53 am 05:53 Cloudy 35 1.7 30 -1.1 82 82 NNE 15 24 30.23 1024 10 16 0.00 0.00
6:00 am 06:00 Cloudy 35 1.7 30 -1.1 82 82 NNE 15 24 30.29 1026 10 16 0.00 0.00
6:07 am 06:07 Cloudy 35 1.7 30 -1.1 82 82 NNE 12 19 30.28 1025 10 16 0.00 0.00
6:53 am 06:53 Cloudy 35 1.7 30 -1.1 82 82 NNE 14 22 30.24 1024 10 16 0.00 0.00
7:36 am 07:36 Cloudy 35 1.7 30 -1.1 82 82 NNE 12 19 30.31 1026 10 16 0.00 0.00
7:53 am 07:53 Cloudy 35 1.7 30 -1.1 82 82 NNE 13 20 30.28 1026 10 16 0.00 0.00
8:25 am 08:25 Cloudy 35 1.7 30 -1.1 82 82 NNE 16 26 30.33 1027 10 16 0.00 0.00
8:53 am 08:53 Cloudy 35 1.7 30 -1.1 82 82 NNE 14 22 30.30 1026 10 16 0.00 0.00
9:53 am 09:53 Cloudy 36 2.2 30 -1.1 79 79 NNE 16 26 30.34 1027 10 16 0.00 0.00
10:53 am 10:53 Cloudy 38 3.3 28 -2.2 68 68 NNE 15 24 30.35 1028 10 16 0.00 0.00
11:36 am 11:36 Cloudy 39 3.9 26 -3.3 60 60 N 13 20 30.37 1029 10 16 0.00 0.00
11:53 am 11:53 Cloudy 39 3.9 26 -3.3 60 60 NNE 14 22 30.36 1028 10 16 0.00 0.00
12:53 pm 12:53 Cloudy 41 5 25 -3.9 53 53 N 13 20 30.33 1027 10 16 0.00 0.00
1:53 pm 13:53 Cloudy 43 6.1 24 -4.4 47 47 NNE 10 17 30.31 1026 10 16 0.00 0.00
2:53 pm 14:53 Mostly Cloudy 43 6.1 21 -6.1 42 42 N 10 17 30.28 1025 10 16 0.00 0.00
3:53 pm 15:53 Sunny 42 5.6 20 -6.7 41 41 NE 12 19 30.25 1024 10 16 0.00 0.00
4:53 pm 16:53 Sunny 41 5 21 -6.1 45 45 NE 8 13 30.27 1025 10 16 0.00 0.00
5:53 pm 17:53 Mostly Sunny 40 4.4 19 -7.2 43 43 NE 8 13 30.29 1026 10 16 0.00 0.00
6:53 pm 18:53 Cloudy 39 3.9 20 -6.7 46 46 NNE 12 19 30.30 1026 10 16 0.00 0.00
7:53 pm 19:53 Cloudy with Light Snow 36 2.2 24 -4.4 62 62 NE 10 17 30.31 1026 8 13 0.00 0.00
8:53 pm 20:53 Cloudy with Light Wintry Mix 32 0 28 -2.2 85 85 E 9 15 30.28 1026 9 14 0.01 0.25
9:35 pm 21:35 Cloudy 32 0 28 -2.2 85 85 E 8 13 30.32 1027 10 16 0.00 0.00
9:53 pm 21:53 Mostly Cloudy 32 0 29 -1.7 88 88 E 6 9 30.29 1026 10 16 0.00 0.00
10:53 pm 22:53 Cloudy 32 0 29 -1.7 88 88 ENE 8 13 30.30 1026 10 16 0.00 0.00
11:53 pm 23:53 Mostly Cloudy 32 0 28 -2.2 85 85 E 7 11 30.29 1026 10 16 0.00 0.00

Powered by AerisWeather